Hourly Weather Bolshie Kovali

Today, 20 June, Sunday

Time Temperature Precipitation Wind Pressure Humidity
00:00 +18°C° 0 mm 4 mps 751 mmHg 88%
01:00 +18°C° 0 mm 3 mps 752 mmHg 89%
02:00 +18°C° 0 mm 3 mps 752 mmHg 91%
03:00 +17°C° 0 mm 3 mps 752 mmHg 92%
04:00 +19°C° 0 mm 3 mps 752 mmHg 88%
05:00 +20°C° 0 mm 3 mps 752 mmHg 83%
06:00 +21°C° 0 mm 3 mps 752 mmHg 78%
07:00 +24°C° 0 mm 3 mps 752 mmHg 72%
08:00 +25°C° 0 mm 3 mps 753 mmHg 66%
09:00 +27°C° 0 mm 3 mps 753 mmHg 59%
10:00 +28°C° 0 mm 3 mps 753 mmHg 56%
11:00 +29°C° 0 mm 3 mps 753 mmHg 52%
12:00 +30°C° 0 mm 3 mps 753 mmHg 49%
13:00 +30°C° 0 mm 3 mps 753 mmHg 49%
14:00 +30°C° 0 mm 3 mps 753 mmHg 49%
15:00 +31°C° 0 mm 2 mps 752 mmHg 48%
16:00 +29°C° 0 mm 2 mps 752 mmHg 56%
17:00 +28°C° 0 mm 2 mps 752 mmHg 63%
18:00 +27°C° 0 mm 2 mps 752 mmHg 70%
19:00 +26°C° 0 mm 2 mps 752 mmHg 73%
20:00 +25°C° 0 mm 2 mps 753 mmHg 75%
21:00 +24°C° 0 mm 2 mps 753 mmHg 78%
22:00 +23°C° 0 mm 2 mps 753 mmHg 77%
23:00 +23°C° 0 mm 2 mps 753 mmHg 76%

Tomorrow, 21 June, Monday

Time Temperature Precipitation Wind Pressure Humidity
00:00 +23°C° 0 mm 2 mps 753 mmHg 75%
01:00 +21°C° 0.1 mm 2 mps 753 mmHg 78%
02:00 +21°C° 0.1 mm 2 mps 753 mmHg 82%
03:00 +20°C° 0.1 mm 2 mps 753 mmHg 85%
04:00 +21°C° 0.1 mm 2 mps 753 mmHg 84%
05:00 +23°C° 0.1 mm 2 mps 753 mmHg 82%
06:00 +24°C° 0.1 mm 2 mps 753 mmHg 81%
07:00 +25°C° 0 mm 3 mps 753 mmHg 74%
08:00 +27°C° 0 mm 3 mps 753 mmHg 67%
09:00 +28°C° 0 mm 3 mps 753 mmHg 60%
10:00 +29°C° 0.1 mm 3 mps 753 mmHg 56%
11:00 +30°C° 0.1 mm 4 mps 753 mmHg 52%
12:00 +32°C° 0.1 mm 4 mps 753 mmHg 48%
13:00 +32°C° 0 mm 4 mps 753 mmHg 47%
14:00 +32°C° 0 mm 4 mps 753 mmHg 47%
15:00 +33°C° 0 mm 4 mps 753 mmHg 46%
16:00 +32°C° 0 mm 4 mps 752 mmHg 52%
17:00 +30°C° 0 mm 4 mps 752 mmHg 57%
18:00 +29°C° 0 mm 4 mps 752 mmHg 62%
19:00 +27°C° 0 mm 3 mps 752 mmHg 69%
20:00 +26°C° 0 mm 3 mps 752 mmHg 75%
21:00 +24°C° 0 mm 2 mps 753 mmHg 81%
22:00 +23°C° 0 mm 2 mps 753 mmHg 84%
23:00 +22°C° 0 mm 3 mps 753 mmHg 86%

Day after tomorrow, 22 June, Tuesday

Time Temperature Precipitation Wind Pressure Humidity
00:00 +21°C° 0 mm 3 mps 753 mmHg 89%
01:00 +21°C° 0 mm 2 mps 753 mmHg 90%
02:00 +21°C° 0 mm 2 mps 753 mmHg 91%
03:00 +20°C° 0 mm 2 mps 753 mmHg 92%
04:00 +21°C° 0 mm 2 mps 753 mmHg 86%
05:00 +23°C° 0 mm 2 mps 753 mmHg 81%
06:00 +25°C° 0 mm 2 mps 753 mmHg 76%
07:00 +26°C° 0 mm 3 mps 753 mmHg 69%
08:00 +28°C° 0 mm 3 mps 753 mmHg 63%
09:00 +29°C° 0 mm 3 mps 753 mmHg 56%
10:00 +30°C° 0 mm 3 mps 753 mmHg 52%
11:00 +31°C° 0 mm 3 mps 753 mmHg 47%
12:00 +33°C° 0 mm 3 mps 753 mmHg 43%
13:00 +33°C° 0 mm 3 mps 753 mmHg 42%
14:00 +34°C° 0 mm 3 mps 753 mmHg 41%
15:00 +34°C° 0 mm 3 mps 753 mmHg 40%
16:00 +33°C° 0 mm 3 mps 752 mmHg 47%
17:00 +30°C° 0 mm 4 mps 752 mmHg 54%
18:00 +29°C° 0 mm 4 mps 752 mmHg 61%
19:00 +28°C° 0 mm 4 mps 752 mmHg 67%
20:00 +26°C° 0 mm 3 mps 752 mmHg 72%
21:00 +25°C° 0 mm 3 mps 752 mmHg 78%
22:00 +24°C° 0 mm 3 mps 752 mmHg 80%
23:00 +23°C° 0 mm 2 mps 752 mmHg 82%

23 June, Wednesday

Time Temperature Precipitation Wind Pressure Humidity
00:00 +23°C° 0 mm 2 mps 752 mmHg 84%
01:00 +21°C° 0 mm 2 mps 752 mmHg 86%
02:00 +21°C° 0 mm 2 mps 752 mmHg 87%
03:00 +20°C° 0 mm 2 mps 752 mmHg 89%
04:00 +21°C° 0 mm 2 mps 752 mmHg 84%
05:00 +22°C° 0 mm 3 mps 752 mmHg 78%
06:00 +24°C° 0 mm 3 mps 752 mmHg 73%
07:00 +26°C° 0 mm 3 mps 752 mmHg 67%
08:00 +28°C° 0 mm 3 mps 752 mmHg 61%
09:00 +29°C° 0 mm 4 mps 752 mmHg 55%
10:00 +30°C° 0 mm 4 mps 752 mmHg 51%
11:00 +32°C° 0 mm 4 mps 752 mmHg 46%
12:00 +33°C° 0 mm 3 mps 752 mmHg 41%
13:00 +33°C° 0 mm 3 mps 752 mmHg 40%
14:00 +34°C° 0 mm 3 mps 752 mmHg 38%
15:00 +34°C° 0 mm 3 mps 751 mmHg 37%
16:00 +33°C° 0 mm 3 mps 751 mmHg 44%
17:00 +31°C° 0 mm 3 mps 751 mmHg 51%
18:00 +30°C° 0 mm 3 mps 751 mmHg 58%
19:00 +28°C° 0 mm 2 mps 751 mmHg 65%
20:00 +26°C° 0 mm 2 mps 751 mmHg 71%
21:00 +25°C° 0 mm 2 mps 750 mmHg 77%
22:00 +24°C° 0.1 mm 2 mps 750 mmHg 78%
23:00 +23°C° 0.1 mm 2 mps 751 mmHg 80%

24 June, Thursday

Time Temperature Precipitation Wind Pressure Humidity
00:00 +23°C° 0.1 mm 2 mps 751 mmHg 81%
01:00 +22°C° 0.1 mm 1 mps 751 mmHg 82%
02:00 +22°C° 0.1 mm 1 mps 750 mmHg 84%
03:00 +21°C° 0.1 mm 1 mps 750 mmHg 85%
04:00 +21°C° 0 mm 2 mps 751 mmHg 82%
05:00 +23°C° 0 mm 2 mps 751 mmHg 79%
06:00 +24°C° 0 mm 3 mps 751 mmHg 76%
07:00 +25°C° 0 mm 2 mps 751 mmHg 70%
08:00 +27°C° 0 mm 2 mps 751 mmHg 64%
09:00 +29°C° 0 mm 2 mps 751 mmHg 59%
10:00 +30°C° 0 mm 2 mps 751 mmHg 55%
11:00 +31°C° 0 mm 2 mps 751 mmHg 52%
12:00 +32°C° 0 mm 2 mps 751 mmHg 49%
13:00 +32°C° 0 mm 2 mps 751 mmHg 48%
14:00 +32°C° 0 mm 1 mps 751 mmHg 46%
15:00 +33°C° 0 mm 1 mps 751 mmHg 45%
16:00 +31°C° 0.3 mm 1 mps 750 mmHg 52%
17:00 +30°C° 0.3 mm 2 mps 750 mmHg 58%
18:00 +29°C° 0.3 mm 2 mps 750 mmHg 65%
19:00 +27°C° 0.9 mm 2 mps 750 mmHg 72%
20:00 +25°C° 0.9 mm 2 mps 750 mmHg 80%
21:00 +21°C° 0.9 mm 2 mps 750 mmHg 87%
22:00 +22°C° 0.4 mm 1 mps 751 mmHg 87%
23:00 +22°C° 0.4 mm 1 mps 751 mmHg 86%

25 June, Friday

Time Temperature Precipitation Wind Pressure Humidity
00:00 +21°C° 0.4 mm 1 mps 751 mmHg 85%
01:00 +19°C° 0 mm 0 mps 751 mmHg 86%
02:00 +19°C° 0 mm 0 mps 750 mmHg 86%
03:00 +19°C° 0 mm 0 mps 750 mmHg 86%
04:00 +22°C° 0 mm 1 mps 750 mmHg 84%
05:00 +23°C° 0 mm 1 mps 750 mmHg 82%
06:00 +24°C° 0 mm 1 mps 751 mmHg 79%
07:00 +25°C° 0 mm 1 mps 750 mmHg 73%
08:00 +27°C° 0 mm 1 mps 750 mmHg 68%
09:00 +29°C° 0 mm 1 mps 750 mmHg 62%
10:00 +30°C° 0 mm 1 mps 750 mmHg 58%
11:00 +31°C° 0 mm 1 mps 750 mmHg 54%
12:00 +32°C° 0 mm 1 mps 750 mmHg 49%
13:00 +33°C° 0 mm 1 mps 750 mmHg 47%
14:00 +34°C° 0 mm 2 mps 750 mmHg 45%
15:00 +35°C° 0 mm 2 mps 750 mmHg 43%
16:00 +34°C° 0 mm 2 mps 749 mmHg 49%
17:00 +32°C° 0 mm 2 mps 749 mmHg 54%
18:00 +31°C° 0 mm 2 mps 748 mmHg 59%
19:00 +30°C° 0 mm 2 mps 748 mmHg 65%
20:00 +28°C° 0 mm 1 mps 748 mmHg 70%
21:00 +26°C° 0 mm 1 mps 748 mmHg 75%
22:00 +25°C° 0.4 mm 1 mps 748 mmHg 80%
23:00 +24°C° 0.4 mm 1 mps 749 mmHg 85%
Show more